Regional Weather Roundup
Issued by NWS Midland/Odessa, TX

Skip options and go directly to product.
Home | Oldest Version | Previous Version | Current Version | All | Text Only | Save Text | Print | Product List | Glossary On

Skip product version selection by date and time.   
015
ASUS44 KMAF 310701
RWRMAF
MIDLAND AREA WEATHER ROUNDUP
NATIONAL WEATHER SERVICE MIDLAND TX
100 AM CST SAT JAN 31 2015

...IN SOUTHWEST TEXAS AND SOUTHEAST NEW MEXICO...

CITY           SKY/WX    TMP DP  RH WIND       PRES   REMARKS
ALPINE         CLOUDY    43  42  97 N5        30.11F
ANDREWS        DRIZZLE   39  38  94 E12       30.14F WCI  32
ARTESIA        CLOUDY    37  37 100 CALM      30.13F
BIG SPRING     CLOUDY    45  34  66 E6        30.19F
CARLSBAD       LGT RAIN  40  38  93 N6        30.12F FOG     WCI  36
DRYDEN           N/A     49  46  90 E13       30.09F
FORT STOCKTON  CLOUDY    46  43  89 SE12      30.07F
GUAD PASS      SNOW      34  34 100 NE26      30.05F VSB 1/4 WCI  21
HOBBS          LGT RAIN  37  37 100 E7        30.14F WCI  32
MARFA          CLOUDY    43  43 100 E5        30.07F
MIDLAND AIRPK  RAIN      44  37  78 E8        30.15F WCI  39
MIDLAND INTL   LGT RAIN  43  37  79 E12       30.12F WCI  37
ODESSA         LGT RAIN  42  36  79 E14       30.12F WCI  35
PECOS          DRIZZLE   44  42  94 E6        30.11S
PRESIDIO       CLOUDY    51  46  80 NE13G18   30.02S
SEMINOLE       CLOUDY    39  36  88 E9        30.16F WCI  33
SNYDER         CLOUDY   N/A N/A N/A E6        30.20F
WINK           LGT RAIN  44  38  79 SE12      30.08F WCI  38
$$
...OTHER STATIONS IN TEXAS...

CITY           SKY/WX    TMP DP  RH WIND       PRES   REMARKS
ABILENE        LGT RAIN  46  35  65 S10       30.21S
AMARILLO       LGT RAIN  33  31  92 SE12      30.17F WCI  24
AUSTIN         CLOUDY    50  40  68 E5        30.25F
BROWNSVILLE    PTCLDY    62  60  93 E6        30.14F
CORPUS CHRISTI CLOUDY    58  54  86 NE12      30.19F
DALLAS FTW     MOCLDY    48  30  49 SE6       30.27F
DEL RIO        CLOUDY    55  42  61 E13G18    30.17F
EL PASO        FLURRIES  44  40  85 CALM      30.00F
HOUSTON INT    PTCLDY    45  37  73 E8        30.27F
LUBBOCK        LGT RAIN  37  34  89 E10       30.17F FOG     WCI  30
SAN ANGELO     CLOUDY    50  38  63 SE8       30.18F
SAN ANTONIO    CLOUDY    54  40  59 E12       30.23F
WACO           MOCLDY    49  34  56 SE7       30.27S
WICHITA FALLS  NOT AVBL
$$
...OTHER LOCATIONS IN NEW MEXICO...

CITY           SKY/WX    TMP DP  RH WIND       PRES   REMARKS
ALAMAGORDO     MIX PCPN  41  41 100 NW8       30.01S WCI  36
ALBUQUERQUE    CLOUDY    36  32  85 VRB5      30.02F WCI  32
CANNON AFB     LGT RAIN  34  34  99 SE7       30.13F WCI  28
CLOVIS         CLOUDY    34  30  86 SE9       30.14F WCI  26
HOLLOMAN AFB   LGT RAIN  42  42 100 SW3       30.00F
ROSWELL        CLOUDY    38  35  89 CALM      30.12F
RUIDOSO        FOG       28  28 100 SE8       30.06F VSB<1/4 WCI  20
SANTA FE       MIX PCPN  30  27  88 S9        30.03F WCI  22
TRUTH OR CONSE LGT RAIN  40  40 100 N3        29.98F
TUCUMCARI      LGT RAIN  34  33  96 E3        30.12F FOG
$$

USA.gov is the U.S. government's official web portal to all federal, state and local government web resources and services.